Location: Castro Valley
(37.6940°N, 122.0850°W)
Time: 15:57:28
(UTC-07:00)

Amateur Radio Satellites - All Passes

Search period start: 24 April 2017 15:27
Search period end: 25 April 2017 15:27
Location: Castro Valley, 37.6940°N, 122.0850°W

Satellite Date Start Highest point End Downlink Frequencies (MHz)
Time Altitude Azimuth
ISS 24 Apr 15:28:21 15:30:56 21° 28° (NNE) 15:33:32 437.550
YUBILEINY 24 Apr 15:44:14 15:52:34 46° 76° (ENE) 16:00:53 435.215
SO-50 24 Apr 15:46:47 15:50:44 29° 51° (NE) 15:54:40 436.795
BEESAT 24 Apr 16:02:43 16:07:29 71° 102° (ESE) 16:12:14 436.000
MOZHAYETS 4 24 Apr 16:17:41 16:22:09 49° 99° (E) 16:26:37
BEESAT 2 24 Apr 16:29:02 16:32:08 21° 310° (NW) 16:35:17 435.950
RS-15 24 Apr 16:36:50 16:48:49 54° 50° (NE) 17:00:11 29.354- 29.394
ITUPSAT 1 24 Apr 16:41:52 16:46:25 45° 288° (WNW) 16:50:58 437.325
KKS-1 24 Apr 16:48:38 16:51:29 17° 94° (E) 16:54:19 437.445
ITAMSAT 1 24 Apr 16:50:06 16:53:57 21° 266° (W) 16:57:50 435.822/435.867
AO-7 24 Apr 16:56:43 17:04:07 36° 262° (W) 17:11:33 .
Tancredo 1 24 Apr 17:00:59 17:03:48 32° 226° (SW) 17:06:37 437.200
CUBESAT XI-V 24 Apr 17:02:40 17:06:32 25° 95° (E) 17:10:23 437.345
ISS 24 Apr 17:04:26 17:07:32 42° 225° (SW) 17:10:38 437.550
STARS 24 Apr 17:26:53 17:29:57 18° 94° (E) 17:32:59 437.465
SO-50 24 Apr 17:27:16 17:31:06 28° 247° (WSW) 17:34:56 436.795
DOVE 4 24 Apr 17:29:52 17:34:27 31° 70° (ENE) 17:39:01 437.250
NUDT-PHONESAT 24 Apr 17:38:10 17:39:38 12° 67° (ENE) 17:41:07 437.300
CUTE-I 24 Apr 17:40:21 17:44:33 24° 66° (ENE) 17:48:45 437.470
YUBILEINY 24 Apr 17:41:23 17:49:05 36° 274° (W) 17:56:48 435.215
BEESAT 24 Apr 17:42:55 17:44:37 12° 298° (WNW) 17:46:19 436.000
MOZHAYETS 4 24 Apr 17:56:11 17:58:53 16° 295° (WNW) 18:01:35
XW-2D 24 Apr 18:05:19 18:08:45 36° 73° (ENE) 18:12:12 145.860 - 145.880
XW-2B 24 Apr 18:12:04 18:15:36 42° 74° (ENE) 18:19:10 145.730 - 145.750
LilacSat-2 24 Apr 18:20:09 18:23:50 59° 76° (ENE) 18:27:33 437.200
XW-2C 24 Apr 18:23:42 18:27:23 63° 76° (ENE) 18:31:05 145.795 - 145.815
KKS-1 24 Apr 18:24:02 18:28:10 39° 289° (WNW) 18:32:17 437.445
KAITUO 1B 24 Apr 18:27:10 18:30:45 53° 76° (ENE) 18:34:22 145.475/437.950
HO-68 24 Apr 18:34:41 18:40:22 26° 61° (ENE) 18:46:03 435.675
CUBESAT XI-V 24 Apr 18:39:46 18:43:52 30° 290° (WNW) 18:47:57 437.345
RS-15 24 Apr 18:49:52 19:01:03 46° 252° (WSW) 19:11:44 29.354- 29.394
XW-2F 24 Apr 18:51:01 18:54:39 56° 260° (W) 18:58:20 145.980 - 146.000
STARS 24 Apr 19:02:24 19:06:21 34° 289° (WNW) 19:10:17 437.465
DOVE 4 24 Apr 19:07:21 19:12:00 31° 264° (W) 19:16:40 437.250
NUDT-PHONESAT 24 Apr 19:09:45 19:13:11 38° 262° (W) 19:16:38 437.300
JUGNU 24 Apr 19:16:46 19:19:02 12° 174° (S) 19:21:20 437.505
CUTE-I 24 Apr 19:19:19 19:24:19 40° 261° (W) 19:29:21 437.470
NO-84 24 Apr 19:40:11 19:43:09 22° 128° (SE) 19:45:56 435.350 FM
XW-2D 24 Apr 19:41:25 19:43:04 13° 268° (W) 19:44:46 145.860 - 145.880
XW-2B 24 Apr 19:49:08 19:50:00 11° 268° (W) 19:50:51 145.730 - 145.750
CUTE 1.7 + AOD 2 24 Apr 19:50:04 19:54:16 80° 75° (ENE) 19:58:30 437.475
ZACube-1 24 Apr 19:51:29 19:52:57 12° 65° (ENE) 19:54:23 437.345
AAUSAT CUBESAT 2 24 Apr 19:54:29 19:57:52 25° 70° (ENE) 20:01:18 437.432
XW-2A 24 Apr 19:54:50 19:58:11 74° 258° (WSW) 20:01:32 145.665 - 145.685
STRAND 1 24 Apr 19:57:10 20:01:46 33° 97° (E) 20:06:19 437.568
AO-73 24 Apr 19:59:14 20:01:07 13° 66° (ENE) 20:03:01 145.935
SEEDS 24 Apr 20:14:24 20:18:34 83° 260° (W) 20:22:47 437.485
Oscar 11 24 Apr 20:16:28 20:19:19 18° 67° (ENE) 20:22:12 .
HO-68 24 Apr 20:20:36 20:27:36 57° 258° (WSW) 20:34:39 435.675
O/OREOS (USA 219) 24 Apr 20:21:58 20:25:39 23° 60° (ENE) 20:29:19 437.305
UWE-3 24 Apr 20:24:07 20:28:18 50° 74° (ENE) 20:32:24 435.000/436.395/437.385
CUBEBUG 2 24 Apr 20:32:23 20:36:48 74° 258° (WSW) 20:41:07 437.445
M-CUBED/EXP-1 PRIME 24 Apr 20:50:52 20:55:06 79° 288° (WNW) 20:58:58 437.505
DELFI C3 24 Apr 20:59:46 21:01:51 14° 67° (ENE) 21:03:57 145.870
JUGNU 24 Apr 21:04:37 21:07:11 13° 184° (S) 21:09:47 437.505
NO-84 24 Apr 21:17:16 21:20:35 33° 320° (NW) 21:23:39 435.350 FM
ZACube-1 24 Apr 21:24:36 21:28:45 54° 260° (W) 21:32:51 437.345
AO-85 24 Apr 21:27:31 21:29:53 15° 47° (NE) 21:32:18 145.980
AAUSAT CUBESAT 2 24 Apr 21:29:58 21:33:15 23° 265° (W) 21:36:34 437.432
AO-73 24 Apr 21:32:52 21:36:56 48° 260° (W) 21:40:58 145.935
STRAND 1 24 Apr 21:36:33 21:40:46 27° 293° (WNW) 21:44:59 437.568
PRISM 24 Apr 21:51:08 21:53:17 14° 93° (E) 21:55:25 437.425
Oscar 11 24 Apr 21:51:12 21:55:09 36° 262° (W) 21:59:09 .
O/OREOS (USA 219) 24 Apr 22:01:02 22:05:03 31° 257° (WSW) 22:09:02 437.305
UWE-3 24 Apr 22:03:23 22:05:00 12° 268° (W) 22:06:36 435.000/436.395/437.385
OBJECT BX 24 Apr 22:10:48 22:14:26 79° 76° (ENE) 22:18:04 145.990 - 145.960
SRMSAT 24 Apr 22:23:06 22:25:46 13° 176° (S) 22:28:26 437.500
DELFI C3 24 Apr 22:32:31 22:36:15 40° 262° (W) 22:40:02 145.870
FO-29 24 Apr 22:53:14 22:57:58 34° 98° (E) 23:02:56 435.910
ESTCUBE 1 24 Apr 22:55:45 22:59:07 21° 67° (ENE) 23:02:29 437.505/2401.250
TIGRISAT 24 Apr 22:58:34 23:02:43 49° 100° (E) 23:06:54 435.000
AO-85 24 Apr 23:06:38 23:10:30 49° 243° (WSW) 23:14:33 145.980
BEESAT 2 24 Apr 23:11:07 23:13:05 13° 45° (NE) 23:15:04 435.950
BEESAT 3 24 Apr 23:15:46 23:19:27 33° 54° (NE) 23:23:04 437.485
UNISAT 6 24 Apr 23:19:04 23:23:21 86° 288° (WNW) 23:27:41 437.425
VELOX 1 24 Apr 23:20:39 23:21:36 11° 63° (ENE) 23:22:35 145.980
LO-87 24 Apr 23:21:32 23:25:10 76° 77° (ENE) 23:28:49 145.935 - 145.965
PRISM 24 Apr 23:24:49 23:28:44 41° 288° (WNW) 23:32:37 437.425
AIST 2D 24 Apr 23:43:57 23:46:31 19° 95° (E) 23:49:04 435.315
POLYITAN 1 24 Apr 23:57:23 23:59:55 15° 93° (E) 00:02:26 437.675
QB50P2 25 Apr 00:03:22 00:06:30 20° 95° (E) 00:09:36 145.880/145.840
50 SAT 25 Apr 00:10:25 00:12:42 17° 69° (ENE) 00:15:00 437.505
SRMSAT 25 Apr 00:11:51 00:14:04 12° 187° (S) 00:16:17 437.500
DX 1 25 Apr 00:17:07 00:19:58 17° 66° (ENE) 00:22:49 434.975-435.025
NANOSAT C BR1 25 Apr 00:26:52 00:30:37 31° 97° (E) 00:34:20 145.865
ESTCUBE 1 25 Apr 00:31:37 00:35:41 33° 263° (W) 00:39:46 437.505/2401.250
SPROUT 25 Apr 00:34:56 00:39:11 66° 75° (ENE) 00:43:25 437.525
TIGRISAT 25 Apr 00:36:55 00:38:59 13° 294° (WNW) 00:41:03 435.000
FO-29 25 Apr 00:38:43 00:42:57 26° 292° (WNW) 00:47:21 435.910
BEESAT 2 25 Apr 00:47:14 00:51:15 63° 243° (WSW) 00:55:13 435.950
VELOX 1 25 Apr 00:53:00 00:57:25 71° 257° (WSW) 01:01:54 145.980
EO-79 25 Apr 00:53:02 00:57:13 73° 101° (E) 01:01:24 145.935-145.965
BEESAT 3 25 Apr 00:53:56 00:56:47 19° 249° (WSW) 00:59:36 437.485
DUCHIFAT 1 25 Apr 00:57:28 01:01:38 66° 101° (E) 01:05:46 145.980
AIST 2D 25 Apr 01:16:56 01:19:38 21° 289° (WNW) 01:22:21 435.315
UKube-1 25 Apr 01:22:33 01:26:49 63° 74° (ENE) 01:31:07 .
POLYITAN 1 25 Apr 01:31:56 01:35:49 37° 288° (WNW) 01:39:41 437.675
QB50P2 25 Apr 01:38:38 01:42:17 29° 289° (WNW) 01:45:55 145.880/145.840
50 SAT 25 Apr 01:42:36 01:45:26 24° 263° (W) 01:48:20 437.505
Gurwin Techsat 1B 25 Apr 01:49:58 01:52:48 14° 91° (E) 01:55:37 435.225
DX 1 25 Apr 01:51:42 01:55:48 40° 261° (W) 01:59:57 434.975-435.025
Oscar 19 25 Apr 02:02:33 02:07:16 34° 97° (E) 02:11:57 437.125/150
NANOSAT C BR1 25 Apr 02:03:07 02:06:06 19° 292° (WNW) 02:09:04 145.865
BUGSAT 1 25 Apr 02:07:27 02:11:24 58° 285° (WNW) 02:15:19 437.445
ITUPSAT 1 25 Apr 02:10:41 02:13:41 17° 65° (ENE) 02:16:42 437.325
PCSat 25 Apr 02:26:12 02:31:00 34° 109° (ESE) 02:35:50 145.827
BEESAT 25 Apr 03:07:00 03:11:43 66° 74° (ENE) 03:16:26 436.000
AO-7 25 Apr 03:09:17 03:13:42 15° 91° (E) 03:18:06 .
MOZHAYETS 4 25 Apr 03:17:41 03:21:50 37° 72° (ENE) 03:26:01
ITAMSAT 1 25 Apr 03:25:14 03:28:33 17° 93° (E) 03:31:51 435.822/435.867
Gurwin Techsat 1B 25 Apr 03:27:53 03:33:08 63° 287° (WNW) 03:38:22 435.225
Oscar 19 25 Apr 03:42:06 03:46:24 27° 293° (WNW) 03:50:40 437.125/150
KKS-1 25 Apr 03:45:44 03:47:55 13° 64° (ENE) 03:50:05 437.445
ITUPSAT 1 25 Apr 03:46:31 03:51:06 48° 260° (W) 03:55:43 437.325
NO-84 25 Apr 03:52:36 03:55:25 52° 43° (NE) 03:58:11 435.350 FM
CUBESAT XI-V 25 Apr 04:04:32 04:07:54 20° 67° (ENE) 04:11:17 437.345
PCSat 25 Apr 04:09:33 04:14:21 32° 306° (NW) 04:19:12 145.827
STARS 25 Apr 04:22:29 04:24:50 14° 65° (ENE) 04:27:11 437.465
YUBILEINY 25 Apr 04:42:30 04:50:53 56° 90° (E) 04:59:18 435.215
BEESAT 25 Apr 04:48:29 04:49:53 11° 269° (W) 04:51:17 436.000
MOZHAYETS 4 25 Apr 04:55:55 04:59:06 19° 267° (W) 05:02:18
AO-7 25 Apr 04:59:04 05:07:25 86° 106° (ESE) 05:15:47 .
ITAMSAT 1 25 Apr 05:03:16 05:08:16 51° 288° (WNW) 05:13:16 435.822/435.867
KKS-1 25 Apr 05:19:35 05:23:58 55° 259° (W) 05:28:23 437.445
CUBESAT XI-V 25 Apr 05:40:42 05:44:58 37° 262° (W) 05:49:18 437.345
STARS 25 Apr 05:56:27 06:00:44 50° 260° (W) 06:05:02 437.465
SO-50 25 Apr 06:01:05 06:03:23 14° 108° (ESE) 06:05:41 436.795
M-CUBED/EXP-1 PRIME 25 Apr 06:03:43 06:04:30 10° 56° (ENE) 06:05:18 437.505
XW-2F 25 Apr 06:25:53 06:28:16 16° 94° (E) 06:30:39 145.980 - 146.000
YUBILEINY 25 Apr 06:40:47 06:48:03 29° 289° (WNW) 06:55:25 435.215
NUDT-PHONESAT 25 Apr 06:42:18 06:45:07 20° 95° (E) 06:47:56 437.300
AO-7 25 Apr 06:53:30 06:59:09 21° 306° (NW) 07:04:50 .
RS-15 25 Apr 06:57:44 07:08:18 39° 106° (ESE) 07:19:10 29.354- 29.394
DOVE 4 25 Apr 07:08:01 07:12:42 87° 276° (W) 07:17:03 437.250
STRAND 1 25 Apr 07:11:09 07:15:52 39° 70° (ENE) 07:20:36 437.568
XW-2D 25 Apr 07:13:12 07:17:00 73° 101° (E) 07:20:48 145.860 - 145.880
XW-2B 25 Apr 07:20:04 07:23:54 86° 105° (ESE) 07:27:43 145.730 - 145.750
LilacSat-2 25 Apr 07:29:04 07:32:53 67° 284° (WNW) 07:36:42 437.200
XW-2C 25 Apr 07:31:57 07:35:43 64° 283° (WNW) 07:39:30 145.795 - 145.815
M-CUBED/EXP-1 PRIME 25 Apr 07:33:35 07:38:09 89° 270° (W) 07:42:52 437.505
KAITUO 1B 25 Apr 07:33:47 07:37:33 79° 283° (WNW) 07:41:20 145.475/437.950
CUTE-I 25 Apr 07:37:46 07:43:06 87° 284° (WNW) 07:48:25 437.470
CUTE 1.7 + AOD 2 25 Apr 07:37:55 07:40:34 16° 93° (E) 07:43:11 437.475
SO-50 25 Apr 07:38:47 07:43:21 58° 303° (WNW) 07:47:52 436.795
HO-68 25 Apr 07:50:37 07:56:53 31° 96° (E) 08:03:07 435.675
Tancredo 1 25 Apr 07:59:06 08:00:47 14° 129° (SE) 08:02:30 437.200
XW-2F 25 Apr 07:59:06 08:02:26 30° 288° (WNW) 08:05:46 145.980 - 146.000
SEEDS 25 Apr 08:00:51 08:03:51 19° 94° (E) 08:06:50 437.485
ISS 25 Apr 08:07:59 08:09:45 14° 129° (SE) 08:11:32 437.550
NUDT-PHONESAT 25 Apr 08:16:01 08:18:56 22° 289° (WNW) 08:21:52 437.300
UWE-3 25 Apr 08:17:39 08:18:48 11° 91° (E) 08:19:59 435.000/436.395/437.385
CUBEBUG 2 25 Apr 08:25:21 08:28:45 24° 96° (E) 08:32:10 437.445
XW-2A 25 Apr 08:51:03 08:54:19 51° 284° (WNW) 08:57:34 145.665 - 145.685
STRAND 1 25 Apr 08:51:14 08:55:08 22° 266° (W) 08:59:03 437.568
FO-29 25 Apr 09:06:22 09:09:15 14° 62° (ENE) 09:11:59 435.910
RS-15 25 Apr 09:08:16 09:20:10 62° 307° (NW) 09:32:28 29.354- 29.394
CUTE 1.7 + AOD 2 25 Apr 09:12:32 09:16:31 38° 287° (WNW) 09:20:29 437.475
AAUSAT CUBESAT 2 25 Apr 09:12:44 09:16:54 61° 100° (E) 09:21:02 437.432
ZACube-1 25 Apr 09:14:35 09:18:18 30° 97° (E) 09:22:04 437.345
CUTE-I 25 Apr 09:21:14 09:22:19 11° 301° (WNW) 09:23:23 437.470
AO-73 25 Apr 09:22:20 09:26:10 33° 97° (E) 09:30:02 145.935
Tancredo 1 25 Apr 09:33:25 09:36:25 45° 324° (NW) 09:39:25 437.200
SEEDS 25 Apr 09:35:45 09:39:34 32° 288° (WNW) 09:43:23 437.485
HO-68 25 Apr 09:37:55 09:44:42 46° 293° (WNW) 09:51:28 435.675
Oscar 11 25 Apr 09:39:46 09:43:56 44° 99° (E) 09:48:05 .
ISS 25 Apr 09:42:44 09:45:54 50° 323° (NW) 09:49:06 437.550
UWE-3 25 Apr 09:51:28 09:55:32 53° 285° (WNW) 09:59:40 435.000/436.395/437.385
TIGRISAT 25 Apr 09:55:23 09:59:22 34° 72° (ENE) 10:03:17 435.000
CUBEBUG 2 25 Apr 10:01:55 10:05:17 24° 290° (WNW) 10:08:39 437.445
DELFI C3 25 Apr 10:11:28 10:14:53 27° 96° (E) 10:18:17 145.870
PRISM 25 Apr 10:11:28 10:15:36 80° 258° (WSW) 10:19:47 437.425
UNISAT 6 25 Apr 10:15:41 10:20:04 65° 75° (ENE) 10:24:22 437.425
O/OREOS (USA 219) 25 Apr 10:31:52 10:36:04 37° 104° (ESE) 10:40:17 437.305
FO-29 25 Apr 10:47:10 10:53:46 84° 256° (WSW) 10:59:35 435.910
AAUSAT CUBESAT 2 25 Apr 10:50:50 10:51:47 11° 296° (WNW) 10:52:45 437.432
ZACube-1 25 Apr 10:51:16 10:54:23 20° 291° (WNW) 10:57:33 437.345
QB50P2 25 Apr 10:55:26 10:57:18 13° 65° (ENE) 10:59:11 145.880/145.840
AO-73 25 Apr 10:59:13 11:02:09 19° 292° (WNW) 11:05:07 145.935
Tancredo 1 25 Apr 11:12:30 11:12:57 10° 342° (NNW) 11:13:26 437.200
OBJECT BX 25 Apr 11:14:55 11:18:32 57° 284° (WNW) 11:22:07 145.990 - 145.960
PCSat 25 Apr 11:16:03 11:20:04 21° 49° (NE) 11:24:04 145.827
Oscar 11 25 Apr 11:17:09 11:19:40 15° 294° (WNW) 11:22:11 .
NANOSAT C BR1 25 Apr 11:17:40 11:20:38 19° 68° (ENE) 11:23:37 145.865
ISS 25 Apr 11:21:52 11:23:00 11° 342° (NNW) 11:24:09 437.550
RS-15 25 Apr 11:26:52 11:35:59 23° 335° (NNW) 11:45:13 29.354- 29.394
TIGRISAT 25 Apr 11:33:01 11:36:06 19° 266° (W) 11:39:10 435.000
EO-79 25 Apr 11:43:21 11:47:19 41° 72° (ENE) 11:51:16 145.935-145.965
DELFI C3 25 Apr 11:46:31 11:49:29 20° 291° (WNW) 11:52:26 145.870
DUCHIFAT 1 25 Apr 11:47:16 11:51:07 36° 72° (ENE) 11:54:58 145.980
AIST 2D 25 Apr 11:48:25 11:51:53 84° 258° (WSW) 11:55:22 435.315
O/OREOS (USA 219) 25 Apr 12:12:08 12:15:34 20° 301° (WNW) 12:19:02 437.305
POLYITAN 1 25 Apr 12:21:54 12:26:05 67° 258° (WSW) 12:30:17 437.675
LO-87 25 Apr 12:23:42 12:27:13 63° 285° (WNW) 12:30:44 145.935 - 145.965
SPROUT 25 Apr 12:24:21 12:26:09 12° 92° (E) 12:27:58 437.525
ESTCUBE 1 25 Apr 12:25:16 12:29:46 57° 100° (E) 12:34:13 437.505/2401.250
QB50P2 25 Apr 12:28:32 12:32:39 51° 260° (W) 12:36:46 145.880/145.840
VELOX 1 25 Apr 12:45:23 12:49:00 24° 96° (E) 12:52:35 145.980
NANOSAT C BR1 25 Apr 12:52:20 12:56:07 32° 263° (W) 12:59:54 145.865
BUGSAT 1 25 Apr 12:54:37 12:58:46 71° 76° (ENE) 13:02:53 437.445
PCSat 25 Apr 12:58:30 13:03:50 58° 247° (WSW) 13:09:07 145.827
50 SAT 25 Apr 13:07:43 13:10:28 21° 96° (E) 13:13:10 437.505
Gurwin Techsat 1B 25 Apr 13:08:55 13:12:46 21° 65° (ENE) 13:16:38 435.225
UKube-1 25 Apr 13:13:32 13:15:07 12° 92° (E) 13:16:42 .
Oscar 19 25 Apr 13:17:26 13:22:15 41° 71° (ENE) 13:27:05 437.125/150
AO-85 25 Apr 13:18:53 13:23:15 81° 119° (ESE) 13:27:21 145.980
EO-79 25 Apr 13:20:52 13:23:13 15° 267° (W) 13:25:35 145.935-145.965
DUCHIFAT 1 25 Apr 13:24:17 13:26:53 16° 267° (W) 13:29:30 145.980
DX 1 25 Apr 13:41:29 13:45:33 38° 98° (E) 13:49:35 434.975-435.025
RS-15 25 Apr 13:47:09 13:55:10 19° 13° (NNE) 14:03:03 29.354- 29.394
SPROUT 25 Apr 13:58:14 14:02:18 47° 286° (WNW) 14:06:22 437.525
ESTCUBE 1 25 Apr 14:03:54 14:06:02 13° 296° (WNW) 14:08:10 437.505/2401.250
AO-7 25 Apr 14:06:25 14:12:11 21° 54° (NE) 14:17:57 .
VELOX 1 25 Apr 14:21:38 14:25:22 27° 291° (WNW) 14:29:04 145.980
Tancredo 1 25 Apr 14:25:32 14:27:14 14° 23° (NNE) 14:28:56 437.200
ISS 25 Apr 14:36:30 14:38:26 15° 23° (NNE) 14:40:22 437.550
BEESAT 2 25 Apr 14:36:46 14:40:18 33° 114° (ESE) 14:43:55 435.950
BEESAT 3 25 Apr 14:40:31 14:44:26 75° 301° (WNW) 14:48:26 437.485
50 SAT 25 Apr 14:40:47 14:43:14 18° 291° (WNW) 14:45:41 437.505
ITAMSAT 1 25 Apr 14:41:14 14:45:14 23° 66° (ENE) 14:49:14 435.822/435.867
UKube-1 25 Apr 14:47:13 14:51:26 53° 286° (WNW) 14:55:36 .
Gurwin Techsat 1B 25 Apr 14:47:15 14:52:21 47° 261° (W) 14:57:28 435.225
YUBILEINY 25 Apr 14:55:36 15:02:28 25° 69° (ENE) 15:09:18 435.215
Oscar 19 25 Apr 14:57:50 15:01:42 21° 266° (W) 15:05:35 437.125/150
AO-85 25 Apr 15:03:01 15:04:05 11° 316° (NW) 15:05:09 145.980
BEESAT 25 Apr 15:09:50 15:13:14 19° 94° (E) 15:16:36 436.000
DX 1 25 Apr 15:18:31 15:21:25 18° 294° (WNW) 15:24:19 434.975-435.025
